Tracking 19709 objects as of 19-Jun-2019
HD Live streaming from Space Station
objects crossing your sky now

DELTA 1 DEB

Track DELTA 1 DEB now!
10-day predictions


NORAD ID: 7086
Int'l Code: 1973-086CE
Perigee: 1,501.7 km
Apogee: 1,521.0 km
Inclination: 101.8 °
Period: 116.1 minutes
Semi major axis: 7882 km
RCS: 0.0523 m2 (small)
Launch date: November 6, 1973
Source: United States (US)
Launch site: AIR FORCE WESTERN TEST RANGE (AFWTR)

Note: This is SATELLITE DEBRIS
aabbcc
Your satellite tracking list
Your tracking list is empty




NASA's NSSDC Master Catalog

Two Line Element Set (TLE):
1  7086U 73086CE  19169.88407469 +.00000031 +00000-0 +55601-3 0  9991
2  7086 101.7837 145.7421 0012225 297.2726 117.7717 12.40570230064084
Source of the keplerian elements: AFSPC